DELTA 1 DEB, 12530

Orbit data source: Space-Track

DELTA 1 DEB, 12530 is space debris in SSO originally from a launch on Thu, 29 Jul 1976 UTC launched from the Air Force Western Test Range (AFWTR). Debris objects in space refer to the collection of defunct objects orbiting the Earth. Examples of debris include non-operational satellites, rocket bodies, and fragments generated from explosions, collisions, or faulty payload assembly.

Loading next visibility...
Identifier
12530, 1976-077DK
Orbit
SSO
Country
Flag of USUS
Related business
Manufacturer
Unknown
Mission
Spacecraft
Bus & Motor
Unknown
Mass
Unknown
Launch date (UTC)
1976-07-29 (49 years ago)
Launch vehicle
Unknown
Launch site
Air Force Western Test Range (AFWTR)
Object type
Payload
Rocket body
Debris
Shape & HBR
Unknown shape, 0.4 m
Radar Cross Section
Medium (>0.1 m² and <1 m²)

Expand to show TLE details & history
Last TLE update: 1 day ago

TLE from 1 day ago
0 DELTA 1 DEB
1 12530U 76077DK  25347.91866458 -.00000019  00000-0  23663-3 0  9990
2 12530 102.5467 330.6748 0126628 286.2476 130.4415 12.27051917 60367
Epoch: 2025-12-13T22:02Z
TLE epoch observation values (Epoch: 2025-12-13T22:02:52.619Z)
Latitude
55.76473°
Longitude
-101.87733°
Altitude
1,636.964 km
Speed
7.029 km/s
True Right ascension
20h 46m 43s
True Declination
55° 37' 20"
Sunlit
Object was in daylight at epoch
Visualization orbit readout
Latitude
Unknown
Longitude
Unknown
Altitude
Unknown
Speed
Unknown
Apparent Right ascension
Unknown
Apparent Declination
Unknown
Sunlit
N/A
Visualization observer readout
Local Sidereal Time
02:13:21
Azimuth
Unknown
Elevation
Unknown
Doppler factor
Unknown
Orbital elements
Apogee altitude
1,660.112 km
Perigee altitude
1,459.084 km
Semi-major axis
7,937.735 km
Eccentricity
0.01266
Inclination
102.5467°
RAAN
330.6748°
Arg. of periapsis
286.2476°
True anomaly
131.53455°
Mean anomaly
130.4415°
Eccentric anomaly
130.98915°
Mean motion
3.06901 °/min
Orbital period
117.3 mins
BSTAR
0.00023663
Loading maneuver chart data...
Computing Atmospheric mass density...
Loading historical data...
Loading historical data...
Loading historical data...
Loading historical data...
Loading historical data...
Loading historical data...
Loading historical data...

Documentation

Showing up to 5 results
|